OE2ATN Weather Reports


time (UTC)temp
C
wind
direction
speed
KPH
gust
KPH
rain 1hr
cm
rain 24hr
cm
rain mn
cm
humidity
%
barometer
mb
20190419131302 18 165 1.6 14.5 0.00 0.00 0.00 22 1030.1
20190419130747 18 72 9.7 14.5 0.00 0.00 0.00 24 1030.1
20190419130313 18 110 12.9 14.5 0.00 0.00 0.00 26 1030.2
20190419130102 18 61 3.2 14.5 0.00 0.00 0.00 22 1030.2
20190419125603 18 94 3.2 14.5 0.00 0.00 0.00 21 1030.3
20190419125231 18 65 9.7 9.7 0.00 0.00 0.00 25 1030.4
20190419124724 18 109 3.2 11.3 0.00 0.00 0.00 18 1030.3
20190419124311 17 99 3.2 16.1 0.00 0.00 0.00 21 1030.4
20190419123851 18 85 9.7 16.1 0.00 0.00 0.00 22 1030.4
20190419123315 18 85 9.7 9.7 0.00 0.00 0.00 24 1030.4
20190419122737 17 102 6.4 8.0 0.00 0.00 0.00 23 1030.4
20190419122238 17 125 8.0 9.7 0.00 0.00 0.00 21 1030.5
20190419121823 17 120 6.4 9.7 0.00 0.00 0.00 25 1030.5
20190419121306 17 87 3.2 14.5 0.00 0.00 0.00 21 1030.5
20190419120816 17 89 9.7 14.5 0.00 0.00 0.00 20 1030.6
20190419120259 17 100 4.8 9.7 0.00 0.00 0.00 23 1030.6
20190419115754 17 85 3.2 14.5 0.00 0.00 0.00 21 1030.6
20190419115327 17 85 8.0 14.5 0.00 0.00 0.00 18 1030.7
20190419114820 17 73 8.0 9.7 0.00 0.00 0.00 25 1030.7
20190419114220 17 80 3.2 11.3 0.00 0.00 0.00 24 1030.7
20190419113805 17 117 6.4 9.7 0.00 0.00 0.00 25 1030.7
20190419113214 16 117 6.4 11.3 0.00 0.00 0.00 29 1030.7
20190419112749 17 117 4.8 9.7 0.00 0.00 0.00 25 1030.8
20190419112242 16 78 3.2 11.3 0.00 0.00 0.00 23 1030.7
20190419111735 16 99 9.7 17.7 0.00 0.00 0.00 25 1030.8
20190419111312 16 121 4.8 17.7 0.00 0.00 0.00 25 1030.8
20190419110728 16 175 1.6 9.7 0.00 0.00 0.00 29 1030.8
20190419110212 16 85 4.8 11.3 0.00 0.00 0.00 30 1030.9
20190419105812 16 90 8.0 11.3 0.00 0.00 0.00 28 1031.0
20190419105212 16 113 3.2 11.3 0.00 0.00 0.00 30 1031.0
20190419104838 16 0.0 0.0 0.00 0.00 0.00 26 1031.0
20190419104242 16 65 4.8 11.3 0.00 0.00 0.00 28 1031.0
20190419103817 16 92 0.0 11.3 0.00 0.00 0.00 28 1031.2
20190419103310 16 135 6.4 9.7 0.00 0.00 0.00 32 1031.2
20190419102719 15 83 1.6 11.3 0.00 0.00 0.00 32 1031.2
20190419102306 15 131 1.6 11.3 0.00 0.00 0.00 32 1031.3
20190419101712 15 71 3.2 11.3 0.00 0.00 0.00 31 1031.3
20190419101339 15 69 6.4 11.3 0.00 0.00 0.00 32 1031.4
20190419100741 15 86 6.4 14.5 0.00 0.00 0.00 31 1031.4
20190419100213 15 96 3.2 14.5 0.00 0.00 0.00 32 1031.4
20190419095726 14 107 8.0 9.7 0.00 0.00 0.00 34 1031.5
20190419095312 14 90 8.0 9.7 0.00 0.00 0.00 36 1031.4
20190419094854 14 93 3.2 9.7 0.00 0.00 0.00 36 1031.4
20190419094245 13 102 3.2 8.0 0.00 0.00 0.00 34 1031.5
20190419093747 13 104 4.8 9.7 0.00 0.00 0.00 38 1031.6
20190419093322 13 99 6.4 9.7 0.00 0.00 0.00 41 1031.6
20190419092732 13 96 4.8 11.3 0.00 0.00 0.00 48 1031.7
20190419092216 12 117 6.4 11.3 0.00 0.00 0.00 48 1031.7
20190419091812 12 93 3.2 11.3 0.00 0.00 0.00 49 1031.8
20190419091312 12 99 4.8 8.0 0.00 0.00 0.00 54 1031.9
20190419090844 12 107 6.4 8.0 0.00 0.00 0.00 54 1031.9
20190419090212 11 124 6.4 9.7 0.00 0.00 0.00 54 1031.9
20190419085737 11 118 4.8 9.7 0.00 0.00 0.00 56 1032.0
20190419085221 11 106 9.7 9.7 0.00 0.00 0.00 59 1032.0
20190419084805 11 100 6.4 9.7 0.00 0.00 0.00 60 1032.0
20190419084315 11 107 4.8 9.7 0.00 0.00 0.00 57 1032.0
20190419083851 11 113 8.0 9.7 0.00 0.00 0.00 61 1032.0
20190419083316 10 142 3.2 6.4 0.00 0.00 0.00 60 1032.1
20190419082714 10 131 3.2 9.7 0.00 0.00 0.00 63 1032.1
20190419082240 10 96 4.8 9.7 0.00 0.00 0.00 64 1032.1
20190419081731 9 96 4.8 9.7 0.00 0.00 0.00 66 1032.2
20190419081222 9 116 4.8 6.4 0.00 0.00 0.00 67 1032.2
20190419080705 9 142 4.8 8.0 0.00 0.00 0.00 66 1032.2
20190419080258 8 164 3.2 6.4 0.00 0.00 0.00 67 1032.2
20190419075751 8 162 3.2 8.0 0.00 0.00 0.00 68 1032.2
20190419075243 8 107 6.4 8.0 0.00 0.00 0.00 70 1032.1
20190419074827 8 141 1.6 8.0 0.00 0.00 0.00 70 1032.2
20190419074319 8 152 3.2 6.4 0.00 0.00 0.00 69 1032.1
20190419073804 7 111 4.8 6.4 0.00 0.00 0.00 71 1032.2
20190419073215 7 127 3.2 6.4 0.00 0.00 0.00 71 1032.1
20190419072813 7 151 4.8 6.4 0.00 0.00 0.00 72 1032.1
20190419072332 7 104 4.8 6.4 0.00 0.00 0.00 72 1032.1
20190419071824 7 154 6.4 4.8 0.00 0.00 0.00 75 1032.0
20190419071234 6 142 3.2 6.4 0.00 0.00 0.00 74 1032.1
20190419070729 6 149 3.2 4.8 0.00 0.00 0.00 76 1032.1
20190419070313 6 131 0.0 6.4 0.00 0.00 0.00 78 1032.1
20190419065715 6 134 3.2 6.4 0.00 0.00 0.00 77 1032.1
20190419065255 6 121 3.2 6.4 0.00 0.00 0.00 77 1032.1
20190419064740 5 149 1.6 6.4 0.00 0.00 0.00 77 1032.1
20190419064241 5 109 6.4 4.8 0.00 0.00 0.00 77 1032.1
20190419063725 5 144 1.6 3.2 0.00 0.00 0.00 77 1032.1
20190419063316 5 137 1.6 4.8 0.00 0.00 0.00 78 1032.1
20190419062718 5 151 3.2 8.0 0.00 0.00 0.00 79 1032.1
20190419062314 5 128 3.2 8.0 0.00 0.00 0.00 79 1032.1
20190419061745 5 104 3.2 4.8 0.00 0.00 0.00 78 1032.1
20190419061247 5 92 1.6 3.2 0.00 0.00 0.00 78 1032.1
20190419060830 5 120 0.0 3.2 0.00 0.00 0.00 76 1032.1
20190419060322 5 90 0.0 3.2 0.00 0.00 0.00 75 1032.1
20190419060134 6 90 0.0 3.2 0.00 0.00 0.00 71 1032.0
20190419055632 6 285 0.0 0.0 0.00 0.00 0.00 72 1032.1
20190419055217 5 285 0.0 0.0 0.00 0.00 0.00 76 1032.1
20190419054712 5 285 0.0 0.0 0.00 0.00 0.00 75 1032.1
20190419054212 5 285 0.0 0.0 0.00 0.00 0.00 77 1032.1
20190419053836 5 285 0.0 0.0 0.00 0.00 0.00 78 1032.1
20190419053329 4 285 0.0 0.0 0.00 0.00 0.00 82 1032.1
20190419052821 3 285 0.0 0.0 0.00 0.00 0.00 84 1032.0
20190419052131 2 285 0.0 1.6 0.00 0.00 0.00 89 1032.0
20190419051715 2 285 0.0 1.6 0.00 0.00 0.00 87 1032.0
20190419051312 1 285 0.0 0.0 0.00 0.00 0.00 89 1031.9
20190419050804 1 285 0.0 0.0 0.00 0.00 0.00 89 1031.9
20190419050211 1 285 0.0 1.6 0.00 0.00 0.00 87 1031.9
20190419045827 1 285 0.0 1.6 0.00 0.00 0.00 87 1031.8
20190419045319 1 285 0.0 1.6 0.00 0.00 0.00 87 1031.8
20190419044811 1 285 0.0 1.6 0.00 0.00 0.00 87 1031.8
20190419044348 1 285 0.0 3.2 0.00 0.00 0.00 87 1031.7
20190419043757 1 283 1.6 3.2 0.00 0.00 0.00 87 1031.6
20190419043333 1 251 3.2 1.6 0.00 0.00 0.00 86 1031.6
20190419042742 1 323 0.0 1.6 0.00 0.00 0.00 87 1031.6
20190419042227 1 18 0.0 1.6 0.00 0.00 0.00 87 1031.6
20190419041627 1 97 0.0 0.0 0.00 0.00 0.00 86 1031.5
20190419041212 1 97 0.0 1.6 0.00 0.00 0.00 85 1031.5
20190419040812 2 97 0.0 1.6 0.00 0.00 0.00 85 1031.5
20190419040215 2 290 0.0 0.0 0.00 0.00 0.00 86 1031.3
20190419035812 2 290 0.0 1.6 0.00 0.00 0.00 86 1031.3
20190419035233 2 290 0.0 1.6 0.00 0.00 0.00 86 1031.2
20190419034732 2 290 0.0 3.2 0.00 0.00 0.00 86 1031.2
20190419034225 2 283 1.6 3.2 0.00 0.00 0.00 84 1031.2
20190419033812 2 293 0.0 1.6 0.00 0.00 0.00 83 1031.0
20190419033210 2 307 0.0 1.6 0.00 0.00 0.00 83 1031.0
20190419032811 2 300 0.0 1.6 0.00 0.00 0.00 84 1031.0
20190419032246 2 306 0.0 1.6 0.00 0.00 0.00 85 1031.0
20190419031804 2 303 0.0 1.6 0.00 0.00 0.00 84 1031.0
20190419031322 2 278 1.6 1.6 0.00 0.00 0.00 83 1031.2
20190419030723 2 272 0.0 1.6 0.00 0.00 0.00 82 1031.0
20190419030217 2 272 0.0 1.6 0.00 0.00 0.00 82 1031.0
20190419025753 2 272 0.0 1.6 0.00 0.00 0.00 83 1031.0
20190419025245 2 272 1.6 1.6 0.00 0.00 0.00 83 1031.0
20190419024836 2 272 0.0 1.6 0.00 0.00 0.00 83 1030.9
20190419024237 2 299 0.0 1.6 0.00 0.00 0.00 80 1030.8
20190419023729 3 299 0.0 1.6 0.00 0.00 0.00 80 1030.8
20190419023313 3 283 1.6 1.6 0.00 0.00 0.00 80 1030.8
20190419022806 3 285 1.6 1.6 0.00 0.00 0.00 80 1030.7
20190419022311 3 288 0.0 3.2 0.00 0.00 0.00 80 1030.7
20190419021842 3 288 0.0 3.2 0.00 0.00 0.00 79 1030.7
20190419021304 3 281 1.6 0.0 0.00 0.00 0.00 78 1030.7
20190419020827 3 320 0.0 0.0 0.00 0.00 0.00 78 1030.7
20190419020227 3 319 0.0 0.0 0.00 0.00 0.00 79 1030.6
20190419015812 3 319 0.0 1.6 0.00 0.00 0.00 79 1030.6
20190419015311 3 302 0.0 1.6 0.00 0.00 0.00 79 1030.6
20190419014810 3 272 0.0 1.6 0.00 0.00 0.00 78 1030.6
20190419014311 4 355 0.0 1.6 0.00 0.00 0.00 76 1030.5
20190419013742 3 330 0.0 1.6 0.00 0.00 0.00 77 1030.4
20190419013319 3 302 0.0 1.6 0.00 0.00 0.00 78 1030.5
20190419012811 3 302 0.0 1.6 0.00 0.00 0.00 78 1030.4
20190419012310 3 302 0.0 1.6 0.00 0.00 0.00 79 1030.4
20190419011848 3 278 1.6 1.6 0.00 0.00 0.00 77 1030.3
20190419011347 3 278 0.0 1.6 0.00 0.00 0.00 78 1030.2
20190419010748 4 276 0.0 1.6 0.00 0.00 0.00 77 1030.3
20190419010310 4 307 0.0 1.6 0.00 0.00 0.00 77 1030.3
20190419005823 3 306 0.0 3.2 0.00 0.00 0.00 77 1030.3
20190419005219 3 292 1.6 3.2 0.00 0.00 0.00 78 1030.2
20190419004810 4 278 3.2 1.6 0.00 0.00 0.00 76 1030.2
20190419004351 4 0.0 0.0 0.00 0.00 0.00 75 1030.2
20190419003712 4 0 0.0 1.6 0.00 0.00 0.00 75 1030.3
20190419003303 4 0 0.0 1.6 0.00 0.00 0.00 75 1030.2
20190419002810 4 321 0.0 1.6 0.00 0.00 0.00 75 1030.2
20190419002232 5 288 1.6 1.6 0.00 0.00 0.00 75 1030.2
20190419001815 5 295 1.6 1.6 0.00 0.00 0.00 71 1030.2
20190419001217 5 299 0.0 1.6 0.00 0.00 0.00 72 1030.1
20190419000815 5 298 0.0 1.6 0.00 0.00 0.00 72 1030.1
20190419000210 5 295 1.6 1.6 0.00 0.00 0.00 74 1030.1
20190418235746 5 295 0.0 1.6 0.00 0.00 0.00 75 1030.1
20190418235231 5 330 1.6 1.6 0.00 0.00 0.00 74 1030.0
20190418234731 5 347 0.0 3.2 0.00 0.00 0.00 72 1030.1
20190418234223 5 300 0.0 3.2 0.00 0.00 0.00 70 1030.0
20190418233709 5 283 1.6 3.2 0.00 0.00 0.00 70 1030.0
20190418233210 5 320 0.0 3.2 0.00 0.00 0.00 70 1030.0
20190418232810 5 303 0.0 4.8 0.00 0.00 0.00 70 1030.0
20190418232245 5 292 0.0 4.8 0.00 0.00 0.00 70 1029.9
20190418231737 5 290 0.0 0.0 0.00 0.00 0.00 71 1030.0
20190418231320 5 306 0.0 1.6 0.00 0.00 0.00 71 1029.9
20190418230813 5 306 0.0 3.2 0.00 0.00 0.00 72 1029.9
20190418230310 5 286 0.0 3.2 0.00 0.00 0.00 71 1029.9
20190418225711 5 289 0.0 1.6 0.00 0.00 0.00 71 1029.8
20190418225110 6 235 0.0 1.6 0.00 0.00 0.00 68 1029.8
20190418224835 6 293 0.0 3.2 0.00 0.00 0.00 67 1029.6
20190418224228 6 0 1.6 4.8 0.00 0.00 0.00 68 1029.6
20190418223728 6 23 0.0 4.8 0.00 0.00 0.00 67 1029.6
20190418223305 6 292 3.2 3.2 0.00 0.00 0.00 68 1029.5
20190418222804 6 259 0.0 3.2 0.00 0.00 0.00 67 1029.5
20190418222350 7 290 3.2 4.8 0.00 0.00 0.00 64 1029.4
20190418221742 7 298 1.6 8.0 0.00 0.00 0.00 63 1029.3
20190418221333 7 268 1.6 8.0 0.00 0.00 0.00 63 1029.4
20190418220738 7 286 1.6 4.8 0.00 0.00 0.00 63 1029.3
20190418220408 7 289 3.2 0.0 0.00 0.00 0.00 62 1029.4
20190418215855 7 293 6.4 6.4 0.00 0.00 0.00 62 1029.3
20190418215354 7 296 0.0 6.4 0.00 0.00 0.00 62 1029.3
20190418214749 7 288 3.2 4.8 0.00 0.00 0.00 63 1029.3
20190418214210 7 313 3.2 4.8 0.00 0.00 0.00 61 1029.2
20190418213740 7 337 0.0 4.8 0.00 0.00 0.00 60 1029.1
20190418213317 7 288 1.6 8.0 0.00 0.00 0.00 61 1029.1
20190418212810 7 312 3.2 9.7 0.00 0.00 0.00 61 1029.0
20190418212310 7 282 8.0 4.8 0.00 0.00 0.00 64 1029.0
20190418211712 7 282 3.2 6.4 0.00 0.00 0.00 61 1029.0
20190418211203 7 283 4.8 6.4 0.00 0.00 0.00 61 1029.0
20190418210740 8 286 3.2 8.0 0.00 0.00 0.00 61 1028.8
20190418210238 7 298 1.6 8.0 0.00 0.00 0.00 60 1028.9
20190418205732 8 305 3.2 4.8 0.00 0.00 0.00 61 1028.8
20190418205224 8 289 4.8 9.7 0.00 0.00 0.00 59 1028.8
20190418204804 8 316 1.6 9.7 0.00 0.00 0.00 59 1028.7
20190418204254 8 278 6.4 6.4 0.00 0.00 0.00 59 1028.7
20190418203753 8 80 1.6 8.0 0.00 0.00 0.00 61 1028.6
20190418203239 7 357 0.0 8.0 0.00 0.00 0.00 61 1028.6
20190418202829 8 274 8.0 8.0 0.00 0.00 0.00 59 1028.6
20190418202322 8 302 1.6 4.8 0.00 0.00 0.00 55 1028.6
20190418201807 8 302 0.0 8.0 0.00 0.00 0.00 57 1028.6
20190418201310 8 348 4.8 8.0 0.00 0.00 0.00 59 1028.5
20190418200804 8 286 3.2 9.7 0.00 0.00 0.00 59 1028.3
20190418200204 8 298 6.4 9.7 0.00 0.00 0.00 60 1028.5
20190418195836 8 288 8.0 11.3 0.00 0.00 0.00 60 1028.3
20190418195210 8 290 8.0 11.3 0.00 0.00 0.00 57 1028.3
20190418194722 9 285 4.8 6.4 0.00 0.00 0.00 56 1028.3
20190418194222 9 276 4.8 9.7 0.00 0.00 0.00 55 1028.3
20190418193759 9 293 4.8 9.7 0.00 0.00 0.00 55 1028.2
20190418193211 9 286 6.4 4.8 0.00 0.00 0.00 54 1028.2
20190418192750 10 271 1.6 4.8 0.00 0.00 0.00 53 1028.1
20190418192210 10 264 3.2 4.8 0.00 0.00 0.00 52 1028.1
20190418191820 10 11 1.6 8.0 0.00 0.00 0.00 53 1028.1
20190418191312 10 312 0.0 9.7 0.00 0.00 0.00 55 1028.0
20190418190805 10 254 1.6 11.3 0.00 0.00 0.00 54 1028.1
20190418190311 10 275 9.7 9.7 0.00 0.00 0.00 54 1027.9
20190418185711 10 282 6.4 9.7 0.00 0.00 0.00 51 1027.9
20190418185211 11 298 0.0 8.0 0.00 0.00 0.00 49 1027.8
20190418184833 11 299 3.2 8.0 0.00 0.00 0.00 49 1027.7
20190418184210 11 254 4.8 8.0 0.00 0.00 0.00 46 1027.7
20190418183818 12 324 0.0 8.0 0.00 0.00 0.00 41 1027.7
20190418183310 12 266 0.0 3.2 0.00 0.00 0.00 41 1027.6
20190418182614 13 266 1.6 11.3 0.00 0.00 0.00 38 1027.5
20190418182211 14 62 6.4 20.9 0.00 0.00 0.00 33 1027.5
20190418181841 14 66 8.0 20.9 0.00 0.00 0.00 33 1027.3
20190418181331 14 59 6.4 16.1 0.00 0.00 0.00 33 1027.2
20190418180711 14 55 9.7 11.3 0.00 0.00 0.00 33 1026.9
20190418180218 14 25 4.8 9.7 0.00 0.00 0.00 32 1026.9
20190418175809 14 25 4.8 6.4 0.00 0.00 0.00 34 1026.8
20190418175304 14 18 3.2 6.4 0.00 0.00 0.00 36 1026.8
20190418174754 14 37 3.2 8.0 0.00 0.00 0.00 34 1026.8
20190418174211 15 283 1.6 11.3 0.00 0.00 0.00 32 1026.6
20190418173830 15 66 1.6 11.3 0.00 0.00 0.00 31 1026.6
20190418173323 14 7 6.4 4.8 0.00 0.00 0.00 36 1026.6
20190418173133 15 329 3.2 4.8 0.00 0.00 0.00 37 1026.5
20190418172632 15 72 1.6 14.5 0.00 0.00 0.00 31 1026.3
20190418172311 15 87 1.6 14.5 0.00 0.00 0.00 31 1026.4
20190418171845 15 82 9.7 14.5 0.00 0.00 0.00 31 1026.3
20190418171211 15 75 6.4 14.5 0.00 0.00 0.00 31 1026.2
20190418170829 16 76 8.0 19.3 0.00 0.00 0.00 31 1026.1
20190418170238 16 113 8.0 19.3 0.00 0.00 0.00 29 1026.1
20190418165823 16 73 6.4 24.1 0.00 0.00 0.00 30 1026.0
20190418165223 16 85 11.3 24.1 0.00 0.00 0.00 28 1025.9
20190418164807 16 96 6.4 19.3 0.00 0.00 0.00 30 1025.9
20190418164311 16 85 12.9 19.3 0.00 0.00 0.00 31 1025.9
20190418163704 16 99 9.7 19.3 0.00 0.00 0.00 30 1025.8
20190418163245 16 97 11.3 17.7 0.00 0.00 0.00 29 1025.6
20190418162828 16 85 9.7 17.7 0.00 0.00 0.00 33 1025.8
20190418162230 16 107 9.7 20.9 0.00 0.00 0.00 29 1025.6
20190418161712 16 114 9.7 20.9 0.00 0.00 0.00 30 1025.6
20190418161311 16 128 14.5 20.9 0.00 0.00 0.00 33 1025.6
20190418160812 16 97 12.9 20.9 0.00 0.00 0.00 30 1025.6
20190418160251 16 123 14.5 27.4 0.00 0.00 0.00 32 1025.6
20190418155803 17 110 17.7 27.4 0.00 0.00 0.00 29 1025.8
20190418155327 17 109 19.3 17.7 0.00 0.00 0.00 32 1025.6
20190418154819 17 102 8.0 17.7 0.00 0.00 0.00 33 1025.5
20190418154220 17 109 17.7 24.1 0.00 0.00 0.00 31 1025.6
20190418153615 17 123 17.7 25.7 0.00 0.00 0.00 29 1025.5
20190418153114 17 103 17.7 25.7 0.00 0.00 0.00 30 1025.4
20190418152711 17 111 11.3 27.4 0.00 0.00 0.00 29 1025.4
20190418152242 17 102 24.1 27.4 0.00 0.00 0.00 28 1025.6
20190418151826 17 107 19.3 25.7 0.00 0.00 0.00 28 1025.5
20190418151311 17 87 22.5 25.7 0.00 0.00 0.00 30 1025.6
20190418150720 17 117 16.1 27.4 0.00 0.00 0.00 31 1025.4
20190418150313 17 117 20.9 25.7 0.00 0.00 0.00 29 1025.6
20190418145713 17 109 16.1 30.6 0.00 0.00 0.00 29 1025.5
20190418145249 17 96 16.1 25.7 0.00 0.00 0.00 28 1025.5
20190418144832 17 100 16.1 25.7 0.00 0.00 0.00 30 1025.5
20190418144226 17 106 22.5 24.1 0.00 0.00 0.00 28 1025.6
20190418143809 17 109 20.9 22.5 0.00 0.00 0.00 28 1025.4
20190418143312 17 96 14.5 22.5 0.00 0.00 0.00 29 1025.4
20190418142712 17 159 14.5 27.4 0.00 0.00 0.00 28 1025.3
20190418142347 17 94 14.5 27.4 0.00 0.00 0.00 26 1025.4
20190418141748 17 102 6.4 24.1 0.00 0.00 0.00 28 1025.3
20190418141324 17 117 8.0 25.7 0.00 0.00 0.00 26 1025.4
20190418140733 17 125 19.3 24.1 0.00 0.00 0.00 30 1025.3
20190418140225 17 111 20.9 22.5 0.00 0.00 0.00 32 1025.2
20190418135717 17 125 20.9 19.3 0.00 0.00 0.00 26 1025.3
20190418135213 17 135 9.7 22.5 0.00 0.00 0.00 25 1025.2
20190418134712 17 134 11.3 22.5 0.00 0.00 0.00 26 1025.3
20190418134344 17 124 17.7 20.9 0.00 0.00 0.00 26 1025.3
20190418133731 17 113 20.9 25.7 0.00 0.00 0.00 25 1025.5
20190418133231 17 118 17.7 22.5 0.00 0.00 0.00 28 1025.3
20190418132715 17 111 8.0 24.1 0.00 0.00 0.00 29 1025.2
20190418132303 17 118 19.3 24.1 0.00 0.00 0.00 26 1025.3
20190418131813 17 118 9.7 22.5 0.00 0.00 0.00 26 1025.3